Voltar ao catálogo

STARLINK-2512

AtivoComunicaçõesVLEO
NORAD 48319·PAYLOAD·🇺🇸 United States

Lançado Apr 29, 2021 de Cape Canaveral Space Force Station

Loading…

Próximas Passagens (próximas 24 horas)

TLE

AtualizadoSource: CelesTrak SupGP

Época: Sep 15, 2026, 01:38 UTC

1 48319C 21036AV  26258.06854167  .00042017  00000+0  13507-2 0  2586
2 48319  53.1581 299.8089 0001100  99.0835 302.6526 15.31692063    12

Acompanhe STARLINK-2512 em tempo real com AllMySat

Download on the App Store